Volver al catálogo

BREEZE-M DEB

TANK

ActivoHEO
NORAD 47243·DEBRIS·🇷🇺 Russia

Lanzado Dec 14, 2020 desde Plesetsk Cosmodrome

Loading…

Próximos Pases (próximas 24 horas)

TLE

ActualizadoSource: Space-Track

Época: Sep 13, 2026, 21:49 UTC

1 47243U 20097B   26256.90905970  .00001632  00000-0  10647-2 0  9990
2 47243  58.5505  89.4676 7320153 117.1155 332.8009  2.20830572 46163

Sigue BREEZE-M DEB en tiempo real con AllMySat

Download on the App Store